Location: Alexander
(41.3564°N, 81.5960°W)
Time: 09:01:27
(UTC+00:00)

Cosmos 1538 Rocket - Pass Details

Date: 24 January 2021
Orbit: 753 x 791 km, 74.0° (Epoch: 02 March)

Event Time Altitude Azimuth Distance (km) Brightness Sun altitude
Rises 23:09:54 0° 338° (NNW) 3,213 7.3 -7.2°
Reaches altitude 10° 23:12:17 10° 337° (NNW) 2,283 6.5 -7.7°
Maximum altitude 23:17:26 74° 254° (WSW) 787 4.3 -8.6°
Drops below altitude 10° 23:22:34 10° 169° (S) 2,276 6.5 -9.5°
Sets 23:24:56 0° 168° (SSE) 3,201 7.3 -9.9°
